Weather History for KMUT - March, 2014

Change the Weather History Date:

Monday, March 17, 2014

  Actual Average (KIOW) Record (KIOW)
Temperature  
Mean Temperature 28 °F 39 °F  
Max Temperature 39 °F 49 °F - ()
Min Temperature 17 °F 30 °F - ()
Degree Days  
Heating Degree Days 37 26  
Month to date heating degree days 506  
Since 1 July heating degree days 5456  
Cooling Degree Days 0 0  
Month to date cooling degree days 0  
Year to date cooling degree days 0  
Moisture  
Dew Point 17 °F    
Average Humidity 63    
Maximum Humidity 86    
Minimum Humidity 45    
Precipitation  
Precipitation 0.00 in 0.08 in - ()
Month to date precipitation 1.25  
Year to date precipitation 3.41  
Sea Level Pressure  
Sea Level Pressure 29.89 in    
Wind  
Wind Speed 7 mph (SSE)    
Max Wind Speed 16 mph    
Max Gust Speed 23 mph    
Visibility 10 miles    
Events      
T = Trace of Precipitation, MM = Missing Value Source: NWS Daily Summary

Daily Weather History Graph

Daily Weather History Graph

Search for Another Location

Airport or City:

Trip Planner

Search our weather history database for the weather conditions in past years. The results will help you decide how hot, cold, wet, or windy it might be!

Date:

Astronomy

Mar. 17, 2014 Rise Set
Actual Time 7:12 AM CDT 7:13 PM CDT
Civil Twilight 6:45 AM CDT 7:41 PM CDT
Nautical Twilight 6:13 AM CDT 8:13 PM CDT
Astronomical Twilight 5:40 AM CDT 8:46 PM CDT
Moon 8:31 PM CDT (3/17) 7:27 AM CDT (3/17)
Length of Visible Light 12h 55m
Length of Day
12h 00m
Full, 99% of the Moon is Illuminated
Mar 17
Full
Mar 23
Last Quarter
Mar 30
New
Apr 7
First Quarter
Apr 15
Full

Hourly Weather History & Observations

Time (CDT) Temp. Windchill Dew Point Humidity Pressure Visibility Wind Dir Wind Speed Gust Speed Precip Events Conditions
12:15 AM 23.0 °F 15.8 °F 12.2 °F 63% 30.16 in 10.0 mi East 5.8 mph - N/A   Clear
12:35 AM 23.0 °F 14.7 °F 12.2 °F 63% 30.13 in 10.0 mi ESE 6.9 mph - N/A   Clear
1:15 AM 21.2 °F 14.9 °F 12.2 °F 68% 30.12 in 10.0 mi East 4.6 mph - N/A   Clear
1:35 AM 21.2 °F 12.6 °F 12.2 °F 68% 30.13 in 10.0 mi East 6.9 mph - N/A   Clear
1:55 AM 21.2 °F 12.6 °F 12.2 °F 68% 30.12 in 10.0 mi ESE 6.9 mph - N/A   Clear
2:15 AM 21.2 °F 11.7 °F 12.2 °F 68% 30.10 in 10.0 mi ESE 8.1 mph - N/A   Clear
2:35 AM 21.2 °F 11.7 °F 14.0 °F 74% 30.09 in 10.0 mi ESE 8.1 mph - N/A   Clear
2:55 AM 21.2 °F 13.6 °F 14.0 °F 74% 30.08 in 10.0 mi ESE 5.8 mph - N/A   Clear
3:15 AM 19.4 °F 12.8 °F 14.0 °F 80% 30.06 in 10.0 mi ESE 4.6 mph - N/A   Clear
3:35 AM 19.4 °F - 14.0 °F 80% 30.07 in 10.0 mi Calm Calm - N/A   Clear
3:55 AM 19.4 °F - 14.0 °F 80% 30.05 in 10.0 mi Calm Calm - N/A   Clear
4:15 AM 19.4 °F - 14.0 °F 80% 30.05 in 10.0 mi Calm Calm - N/A   Clear
4:35 AM 19.4 °F - 12.2 °F 74% 30.04 in 10.0 mi Calm Calm - N/A   Clear
4:55 AM 19.4 °F - 12.2 °F 74% 30.03 in 10.0 mi Calm Calm - N/A   Clear
5:15 AM 19.4 °F - 14.0 °F 80% 30.02 in 10.0 mi Calm Calm - N/A   Clear
5:35 AM 19.4 °F - 14.0 °F 80% 30.03 in 10.0 mi Calm Calm - N/A   Clear
5:55 AM 17.6 °F - 12.2 °F 79% 30.03 in 10.0 mi Calm Calm - N/A   Clear
6:15 AM 19.4 °F - 14.0 °F 80% 30.02 in 10.0 mi Calm Calm - N/A   Clear
6:35 AM 17.6 °F - 14.0 °F 86% 30.01 in 10.0 mi Calm Calm - N/A   Clear
6:55 AM 17.6 °F - 14.0 °F 86% 30.00 in 10.0 mi Calm Calm - N/A   Clear
7:15 AM 17.6 °F 10.7 °F 14.0 °F 86% 29.99 in 10.0 mi SE 4.6 mph - N/A   Clear
7:35 AM 17.6 °F - 14.0 °F 86% 29.99 in 10.0 mi Calm Calm - N/A   Clear
7:55 AM 19.4 °F - 14.0 °F 80% 29.99 in 10.0 mi Calm Calm - N/A   Clear
8:15 AM 21.2 °F 14.9 °F 14.0 °F 74% 29.98 in 10.0 mi SSE 4.6 mph - N/A   Clear
8:35 AM 21.2 °F 11.7 °F 14.0 °F 74% 29.97 in 10.0 mi SSE 8.1 mph - N/A   Clear
8:55 AM 23.0 °F 13.1 °F 14.0 °F 68% 29.97 in 10.0 mi SE 9.2 mph - N/A   Clear
9:15 AM 23.0 °F 13.1 °F 14.0 °F 68% 29.97 in 10.0 mi SSE 9.2 mph - N/A   Clear
9:35 AM 23.0 °F 13.1 °F 14.0 °F 68% 29.97 in 10.0 mi South 9.2 mph - N/A   Clear
9:55 AM 24.8 °F 16.1 °F 15.8 °F 69% 29.97 in 10.0 mi South 8.1 mph - N/A   Clear
10:15 AM 26.6 °F 18.2 °F 15.8 °F 64% 29.96 in 10.0 mi South 8.1 mph 13.8 mph N/A   Clear
10:35 AM 26.6 °F 17.5 °F 15.8 °F 64% 29.96 in 10.0 mi SSE 9.2 mph - N/A   Clear
10:55 AM 26.6 °F 15.7 °F 15.8 °F 64% 29.94 in 10.0 mi South 12.7 mph - N/A   Clear
11:15 AM 28.4 °F 18.5 °F 15.8 °F 59% 29.92 in 10.0 mi South 11.5 mph 18.4 mph N/A   Mostly Cloudy
11:35 AM 28.4 °F 18.5 °F 15.8 °F 59% 29.92 in 10.0 mi South 11.5 mph 18.4 mph N/A   Mostly Cloudy
11:55 AM 30.2 °F 19.3 °F 15.8 °F 55% 29.90 in 10.0 mi SSE 15.0 mph - N/A   Overcast
12:15 PM 30.2 °F 19.3 °F 15.8 °F 55% 29.89 in 10.0 mi South 15.0 mph 23.0 mph N/A   Scattered Clouds
12:35 PM 30.2 °F 19.3 °F 17.6 °F 60% 29.88 in 10.0 mi SSE 15.0 mph - N/A   Clear
12:55 PM 32.0 °F 21.6 °F 17.6 °F 55% 29.87 in 10.0 mi SSE 15.0 mph - N/A   Clear
1:15 PM 32.0 °F 22.1 °F 17.6 °F 55% 29.86 in 10.0 mi South 13.8 mph - N/A   Clear
1:35 PM 33.8 °F 24.3 °F 19.4 °F 56% 29.83 in 10.0 mi SSE 13.8 mph 19.6 mph N/A   Partly Cloudy
1:55 PM 33.8 °F 23.9 °F 17.6 °F 52% 29.81 in 10.0 mi South 15.0 mph - N/A   Clear
2:15 PM 35.6 °F 27.5 °F 17.6 °F 48% 29.81 in 10.0 mi SSE 11.5 mph 17.3 mph N/A   Clear
2:35 PM 35.6 °F 27.1 °F 17.6 °F 48% 29.80 in 10.0 mi South 12.7 mph 18.4 mph N/A   Clear
2:55 PM 35.6 °F 25.9 °F 17.6 °F 48% 29.79 in 10.0 mi South 16.1 mph - N/A   Clear
3:15 PM 35.6 °F 26.6 °F 17.6 °F 48% 29.77 in 10.0 mi SSE 13.8 mph 20.7 mph N/A   Clear
3:35 PM 37.4 °F 28.5 °F 17.6 °F 45% 29.76 in 10.0 mi South 15.0 mph - N/A   Clear
3:55 PM 37.4 °F 28.9 °F 19.4 °F 48% 29.75 in 10.0 mi SSE 13.8 mph 21.9 mph N/A   Clear
4:15 PM 39.2 °F 30.5 °F 19.4 °F 45% 29.74 in 10.0 mi South 16.1 mph - N/A   Clear
4:35 PM 39.2 °F 30.8 °F 19.4 °F 45% 29.74 in 10.0 mi South 15.0 mph 21.9 mph N/A   Clear
4:55 PM 39.2 °F 31.2 °F 21.2 °F 49% 29.73 in 10.0 mi South 13.8 mph 19.6 mph N/A   Clear
5:15 PM 39.2 °F 31.6 °F 21.2 °F 49% 29.73 in 10.0 mi SSE 12.7 mph - N/A   Clear
5:35 PM 39.2 °F 31.2 °F 21.2 °F 49% 29.73 in 10.0 mi SSE 13.8 mph - N/A   Clear
5:55 PM 39.2 °F 30.5 °F 21.2 °F 49% 29.72 in 10.0 mi South 16.1 mph - N/A   Clear
6:15 PM 39.2 °F 32.0 °F 23.0 °F 52% 29.72 in 10.0 mi SSE 11.5 mph 17.3 mph N/A   Clear
6:35 PM 39.2 °F 31.6 °F 23.0 °F 52% 29.71 in 10.0 mi SSE 12.7 mph - N/A   Clear
6:55 PM 39.2 °F 33.6 °F 23.0 °F 52% 29.71 in 10.0 mi SSE 8.1 mph - N/A   Clear
7:15 PM 37.4 °F 31.4 °F 23.0 °F 56% 29.71 in 10.0 mi SSE 8.1 mph - N/A   Clear
7:35 PM 37.4 °F 30.3 °F 23.0 °F 56% 29.71 in 10.0 mi SSE 10.4 mph - N/A   Clear
7:55 PM 37.4 °F 31.4 °F 23.0 °F 56% 29.71 in 10.0 mi SSE 8.1 mph - N/A   Clear
8:15 PM 37.4 °F 30.3 °F 21.2 °F 52% 29.71 in 10.0 mi SSE 10.4 mph - N/A   Clear
8:35 PM 37.4 °F 30.3 °F 21.2 °F 52% 29.72 in 10.0 mi SSE 10.4 mph - N/A   Clear
8:55 PM 37.4 °F 31.4 °F 21.2 °F 52% 29.72 in 10.0 mi SSE 8.1 mph 15.0 mph N/A   Clear
9:15 PM 37.4 °F 30.8 °F 23.0 °F 56% 29.73 in 10.0 mi SSE 9.2 mph - N/A   Clear
9:35 PM 37.4 °F 32.8 °F 23.0 °F 56% 29.73 in 10.0 mi SSE 5.8 mph - N/A   Clear
9:55 PM 37.4 °F 32.1 °F 23.0 °F 56% 29.73 in 10.0 mi SE 6.9 mph - N/A   Clear
10:15 PM 35.6 °F 30.7 °F 23.0 °F 60% 29.73 in 10.0 mi SE 5.8 mph - N/A   Clear
10:35 PM 33.8 °F 28.6 °F 24.8 °F 70% 29.73 in 10.0 mi SE 5.8 mph - N/A   Clear
10:55 PM 33.8 °F 28.6 °F 24.8 °F 70% 29.73 in 10.0 mi SE 5.8 mph - N/A   Clear
11:15 PM 35.6 °F 29.2 °F 24.8 °F 65% 29.74 in 10.0 mi SE 8.1 mph 15.0 mph N/A   Clear
11:35 PM 35.6 °F 29.2 °F 24.8 °F 65% 29.73 in 10.0 mi SE 8.1 mph 13.8 mph N/A   Clear
11:55 PM 35.6 °F 28.6 °F 24.8 °F 65% 29.73 in 10.0 mi SSE 9.2 mph - N/A   Clear